Overview Statistics Trail Chart Weather Telemetry Raw packets
 

This is the latest recevied weather packets stored in our database for station/object N4DWK. If no packets are shown the sender has not sent any weather packets the latest 10 day(s).

<< 11 12 13 14 15 16 17 >>
Time Temp. Humidity Pressure Rain* Wind** Luminosity Snow
1788537906 33.33° C 66% 1013.9 hPa 0 mm - 90 W/m² -
1788537606 33.33° C 65% 1014.1 hPa 0 mm - 77 W/m² -
1788537306 33.33° C 66% 1014.1 hPa 0 mm - 105 W/m² -
1788537006 33.33° C 68% 1014.2 hPa 0 mm - 104 W/m² -
1788536707 32.78° C 66% 1014.3 hPa 0 mm - 153 W/m² -
1788536406 32.78° C 67% 1014.2 hPa 0 mm - 93 W/m² -
1788536107 32.78° C 67% 1014.1 hPa 0 mm - 54 W/m² -
1788535806 32.22° C 67% 1014.2 hPa 0 mm - 91 W/m² -
1788535506 32.22° C 68% 1014.2 hPa 0 mm - 67 W/m² -
1788535221 32.22° C 69% 1014.1 hPa 0 mm - 54 W/m² -
1788534906 31.67° C 71% 1014.1 hPa 0 mm - 54 W/m² -
1788534606 31.67° C 71% 1014.1 hPa 0 mm - 53 W/m² -
1788534306 31.67° C 73% 1014.2 hPa 0 mm - 54 W/m² -
1788534005 31.67° C 73% 1014.1 hPa 0 mm - 54 W/m² -
1788533706 31.11° C 73% 1014.2 hPa 0 mm - 53 W/m² -
1788533405 31.11° C 74% 1014.1 hPa 0 mm - 53 W/m² -
1788533105 31.11° C 74% 1014.2 hPa 0 mm - 54 W/m² -
1788532806 31.11° C 74% 1014 hPa 0 mm - 51 W/m² -
1788532506 30.56° C 74% 1014.1 hPa 0 mm - 51 W/m² -
1788532205 30.56° C 74% 1014 hPa 0 mm - 63 W/m² -
1788531907 30.56° C 75% 1014 hPa 0 mm - 81 W/m² -
1788531606 30.56° C 76% 1014 hPa 0 mm - 67 W/m² -
1788531305 30.56° C 76% 1014 hPa 0 mm - 69 W/m² -
1788531006 30.56° C 76% 1014.1 hPa 0 mm - 60 W/m² -
1788530706 30° C 77% 1014 hPa 0 mm - 65 W/m² -

* Rain latest hour (hover to see other rain measurements)
** Current wind speed in m/s (hover to see current wind gust speed)